65P/Gunn (2010)

Japanese version
Home page
Updated on February 1, 2012

---------------------------------------------------------------------

* Profile

* Pictures

* Orbital Elements

Epoch 2010 Feb. 13.0 TT = JDT 2455240.5
T 2010 Mar. 2.14490 TT                                  MPC
q   2.4403857            (2000.0)            P               Q
n   0.14517233     Peri.  196.63893     -0.09162613     +0.98159154
a   3.5854759      Node    68.35480     -0.89185893     -0.00603724
e   0.3193691      Incl.   10.38677     -0.44293601     -0.19089681
P   6.79
From 2913 observations 1997 June 11-2011 Dec. 29, mean residual 0".8.
     Nongravitational parameters Y1 = +0.18, Y2 = +0.0186.

* Finding Charts

* Magnitudes Graph

        m1 = 6.8 + 5 log d + 12.0 log r

---------------------------------------------------------------------

The orbital elements are published on M.P.E.C. 2012-A52.
The charts are made with StellaNavigator Ver.2.0 for Windows (AstroArts / ASCII).
The magnitudes graphs are made with Comet for Windows.

---------------------------------------------------------------------

Copyright(C) Seiichi Yoshida (comet@aerith.net). All rights reserved.